Home > Time Zones > World Clock > Weather > Greece > Ilio > Past weeks

Flag for Greece Weather past 2 weeks in Ilio, Greece

Now
81 °F

Partly sunny.


Feels Like: 79 °F
Forecast: 67 / 80 °F
Wind: 17 mph from Northwest

Location: Elefsis Airport

Current Time: Jun 2, 2015 at 2:58:15 PM

Latest Report: Jun 2, 2015 at 1:50 PM


Visibility: N/A

Pressure: 29.98 "Hg

Humidity: 28%

Dew point: 45 °F

Location of IlioLocation

Historic Weather in Ilio — Graph

°F

Ilio temperature yesterday

Maximum temperature yesterday: 82 °F (at 1:20 PM)
Minimum temperature yesterday: 57 °F (at 4:20 AM)
Average temperature yesterday: 72 °F

Past Weeks' High & Low Weather Summary

 TemperatureHumidityPressure
High86 °F (May 22, 2:50 PM)94% (May 28, 12:50 PM)30.04 "Hg (May 28, 12:50 PM)
Low55 °F (May 30, 6:20 AM)15% (May 24, 2:20 PM)29.68 "Hg (May 27, 3:50 AM)
Average71 °F51%29.86 "Hg
* Reported May 18 1:20 PM — Jun 2 1:20 PM, Ilio, Weather by CustomWeather, © 2015

Note: Actual official high and low records may vary slightly from our data, if they occured in-between our weather recording intervals... More about our weather records

Advertising

Ilio weather history for previous 24 hours

 ConditionsComfort  
Time TempWeatherWind HumidityBarometerVisibility
1:20 PM
Tue, Jun 2
81 °FPartly sunny.17 mph30%29.98 "HgN/A
12:50 PM81 °FPartly sunny.17 mph26%29.98 "HgN/A
12:20 PM81 °FScattered clouds.17 mph28%29.98 "HgN/A
11:50 AM79 °FScattered clouds.17 mph30%29.98 "HgN/A
11:20 AM79 °FScattered clouds.17 mph30%29.98 "HgN/A
10:50 AM77 °FScattered clouds.14 mph32%29.98 "HgN/A
10:20 AM77 °FScattered clouds.16 mph36%29.98 "HgN/A
9:50 AM75 °FScattered clouds.16 mph41%29.98 "HgN/A
9:20 AM73 °FScattered clouds.14 mph44%29.98 "HgN/A
8:50 AM73 °FScattered clouds.13 mph47%29.98 "HgN/A
8:20 AM72 °FScattered clouds.9 mph50%29.98 "HgN/A
7:50 AM70 °FScattered clouds.10 mph53%29.98 "HgN/A
6:20 AM66 °FPassing clouds.6 mph52%29.98 "HgN/A
5:50 AM64 °FPassing clouds.3 mph56%29.98 "HgN/A
5:20 AM66 °FPassing clouds.5 mph52%29.98 "HgN/A
4:50 AM68 °FPassing clouds.8 mph46%29.98 "HgN/A
4:20 AM68 °FPassing clouds.6 mph46%29.98 "HgN/A
3:50 AM68 °FPassing clouds.8 mph46%29.98 "HgN/A
2:50 AM66 °FPassing clouds.8 mph49%29.98 "HgN/A
2:20 AM66 °FPassing clouds.3 mph49%30.01 "HgN/A
1:50 AM64 °FPassing clouds.3 mph52%30.01 "HgN/A
1:20 AM64 °FPassing clouds.3 mph52%30.01 "HgN/A
12:50 AM66 °FPassing clouds.3 mph46%30.01 "HgN/A
12:20 AM68 °FPassing clouds.5 mph43%30.01 "HgN/A
11:50 PM
Mon, Jun 1
68 °FPassing clouds.9 mph43%30.01 "HgN/A
11:20 PM70 °FPassing clouds.7 mph38%30.01 "HgN/A
10:50 PM70 °FPassing clouds.7 mph43%30.01 "HgN/A
10:20 PM70 °FPassing clouds.6 mph43%30.01 "HgN/A
9:50 PM70 °FPassing clouds.3 mph46%30.01 "HgN/A
9:20 PM73 °FPartly sunny.6 mph41%29.98 "HgN/A
8:50 PM73 °FPartly sunny.10 mph41%29.98 "HgN/A
8:20 PM75 °FPartly sunny.9 mph36%29.98 "HgN/A
7:50 PM77 °FPartly sunny.10 mph30%29.98 "HgN/A
7:20 PM79 °FPartly sunny.9 mph30%29.98 "HgN/A
6:50 PM79 °FPartly sunny.10 mph30%29.98 "HgN/A
6:20 PM79 °FPartly sunny.10 mph30%29.98 "HgN/A
5:50 PM81 °FPassing clouds.12 mph28%29.98 "HgN/A
5:20 PM81 °FScattered clouds.14 mph28%29.98 "HgN/A
4:50 PM81 °FScattered clouds.12 mph28%29.98 "HgN/A
4:20 PM81 °FScattered clouds.12 mph26%29.98 "HgN/A
3:50 PM81 °FScattered clouds.12 mph26%30.01 "HgN/A
3:20 PM81 °FScattered clouds.12 mph24%30.01 "HgN/A
2:50 PM82 °FBroken clouds.12 mph21%30.01 "HgN/A
2:20 PM82 °FScattered clouds.12 mph25%30.01 "HgN/A
Weather by CustomWeather, © 2015

See weather overviewHow to use our weather pages